| time (UTC) | temp F | wind direction | speed knots | gust knots | rain 1hr in | rain 24hr in | rain mn in | humidity % | barometer mb |
| 20260509090812 | 50 | 262 | 1.7 | 3.5 | 0.00 | 0.00 | 0.00 | 86 | 1009.2 |
| 20260509085312 | 50 | 287 | 0.0 | 3.5 | 0.00 | 0.00 | 0.00 | 86 | 1009.1 |
| 20260509083812 | 50 | 233 | 0.0 | 1.7 | 0.00 | 0.00 | 0.00 | 86 | 1009.4 |
| 20260509082312 | 50 | 193 | 0.0 | 1.7 | 0.00 | 0.00 | 0.00 | 84 | 1009.4 |
| 20260509080812 | 50 | 205 | 0.0 | 2.6 | 0.00 | 0.00 | 0.00 | 83 | 1009.4 |
| 20260509075312 | 50 | 288 | 0.0 | 3.5 | 0.00 | 0.00 | 0.00 | 85 | 1009.5 |
| 20260509073812 | 50 | 274 | 1.7 | 4.3 | 0.00 | 0.00 | 0.00 | 88 | 1009.4 |
| 20260509072313 | 50 | 304 | 0.0 | 0.9 | 0.00 | 0.00 | 0.00 | 87 | 1009.7 |
| 20260509070812 | 50 | 62 | 0.0 | 2.6 | 0.00 | 0.00 | 0.00 | 87 | 1009.8 |
| 20260509065312 | 50 | 260 | 0.9 | 0.9 | 0.00 | 0.00 | 0.00 | 87 | 1009.8 |
| 20260509063812 | 50 | 10 | 0.9 | 1.7 | 0.00 | 0.00 | 0.00 | 86 | 1010.2 |
| 20260509062312 | 50 | 240 | 0.0 | 0.0 | 0.00 | 0.00 | 0.00 | 86 | 1010.3 |
| 20260509060812 | 50 | 180 | 0.0 | 0.9 | 0.00 | 0.00 | 0.00 | 86 | 1010.6 |
| 20260509055313 | 50 | 224 | 0.0 | 1.7 | 0.00 | 0.00 | 0.00 | 85 | 1010.7 |
| 20260509053812 | 50 | 4 | 0.0 | 1.7 | 0.00 | 0.00 | 0.00 | 85 | 1010.9 |
| 20260509052312 | 50 | 223 | 0.0 | 1.7 | 0.00 | 0.00 | 0.00 | 84 | 1011.1 |
| 20260509050813 | 51 | 219 | 0.0 | 0.9 | 0.00 | 0.00 | 0.00 | 83 | 1011.3 |
| 20260509045313 | 52 | 213 | 0.0 | 0.9 | 0.00 | 0.00 | 0.00 | 81 | 1011.3 |
| 20260509043813 | 52 | 244 | 1.7 | 1.7 | 0.00 | 0.00 | 0.00 | 79 | 1011.3 |
| 20260509042313 | 52 | 246 | 0.0 | 2.6 | 0.00 | 0.00 | 0.00 | 77 | 1011.3 |
| 20260509040813 | 52 | 246 | 0.0 | 0.9 | 0.00 | 0.00 | 0.00 | 77 | 1011.2 |
| 20260509035313 | 52 | 219 | 0.0 | 0.9 | 0.00 | 0.00 | 0.00 | 78 | 1011.2 |
| 20260509033813 | 52 | 283 | 0.0 | 1.7 | 0.00 | 0.00 | 0.00 | 77 | 1011.0 |
| 20260509032313 | 52 | 17 | 0.9 | 1.7 | 0.00 | 0.00 | 0.00 | 77 | 1011.0 |
| 20260509030813 | 52 | 56 | 1.7 | 1.7 | 0.00 | 0.00 | 0.00 | 76 | 1010.7 |
| 20260509025313 | 52 | 39 | 0.9 | 0.9 | 0.00 | 0.00 | 0.00 | 77 | 1010.7 |
| 20260509023813 | 52 | 210 | 1.7 | 2.6 | 0.00 | 0.00 | 0.00 | 79 | 1011.2 |
| 20260509022313 | 52 | 240 | 0.0 | 0.9 | 0.00 | 0.00 | 0.00 | 78 | 1011.2 |
| 20260509020813 | 52 | 237 | 0.0 | 0.9 | 0.00 | 0.00 | 0.00 | 76 | 1011.1 |
| 20260509015313 | 52 | 205 | 0.0 | 0.9 | 0.00 | 0.00 | 0.00 | 77 | 1011.2 |
| 20260509013813 | 53 | 229 | 0.0 | 1.7 | 0.00 | 0.00 | 0.00 | 76 | 1011.2 |
| 20260509012313 | 53 | 230 | 0.0 | 0.9 | 0.00 | 0.00 | 0.00 | 74 | 1010.9 |
| 20260509010813 | 54 | 226 | 0.0 | 0.9 | 0.00 | 0.00 | 0.00 | 72 | 1010.6 |
| 20260509005313 | 55 | 225 | 0.9 | 0.9 | 0.00 | 0.00 | 0.00 | 70 | 1010.5 |
| 20260509003813 | 56 | 225 | 0.0 | 0.9 | 0.00 | 0.00 | 0.00 | 66 | 1010.3 |
| 20260509002313 | 57 | 221 | 0.0 | 0.9 | 0.00 | 0.00 | 0.00 | 62 | 1010.4 |
| 20260509000813 | 58 | 221 | 0.0 | 0.9 | 0.00 | 0.00 | 0.00 | 61 | 1010.5 |
| 20260508235313 | 59 | 221 | 0.0 | 0.0 | 0.00 | 0.00 | 0.00 | 55 | 1010.5 |
| 20260508233813 | 60 | 218 | 0.0 | 2.6 | 0.00 | 0.00 | 0.00 | 56 | 1010.3 |
| 20260508232313 | 60 | 248 | 0.0 | 1.7 | 0.00 | 0.00 | 0.00 | 52 | 1010.4 |
| 20260508230813 | 61 | 250 | 1.7 | 5.2 | 0.00 | 0.00 | 0.00 | 51 | 1010.1 |
| 20260508225313 | 61 | 220 | 0.0 | 3.5 | 0.00 | 0.00 | 0.00 | 52 | 1010.1 |
| 20260508223813 | 61 | 97 | 0.0 | 3.5 | 0.00 | 0.00 | 0.00 | 51 | 1010.1 |
| 20260508222313 | 61 | 139 | 0.9 | 5.2 | 0.00 | 0.00 | 0.00 | 51 | 1010.1 |
| 20260508220813 | 61 | 195 | 4.3 | 6.1 | 0.00 | 0.00 | 0.00 | 51 | 1010.3 |
| 20260508215313 | 62 | 63 | 3.5 | 7.0 | 0.00 | 0.00 | 0.00 | 50 | 1010.1 |
| 20260508213813 | 62 | 212 | 0.0 | 3.5 | 0.00 | 0.00 | 0.00 | 50 | 1009.9 |
| 20260508212313 | 62 | 301 | 0.9 | 5.2 | 0.00 | 0.00 | 0.00 | 50 | 1009.9 |
| 20260508210813 | 61 | 117 | 0.0 | 2.6 | 0.00 | 0.00 | 0.00 | 52 | 1009.9 |
| 20260508205314 | 61 | 165 | 0.0 | 1.7 | 0.00 | 0.00 | 0.00 | 53 | 1010.0 |
| 20260508203814 | 60 | 150 | 2.6 | 3.5 | 0.00 | 0.00 | 0.00 | 57 | 1010.2 |
| 20260508202314 | 60 | 225 | 1.7 | 3.5 | 0.00 | 0.00 | 0.00 | 55 | 1010.3 |
| 20260508200814 | 63 | 255 | 0.9 | 5.2 | 0.00 | 0.00 | 0.00 | 43 | 1010.3 |
| 20260508195314 | 63 | 141 | 0.0 | 5.2 | 0.00 | 0.00 | 0.00 | 42 | 1010.0 |
| 20260508193814 | 63 | 140 | 0.0 | 6.1 | 0.00 | 0.00 | 0.00 | 42 | 1010.0 |
| 20260508192314 | 64 | 143 | 4.3 | 7.8 | 0.00 | 0.00 | 0.00 | 40 | 1010.1 |
| 20260508190814 | 65 | 179 | 2.6 | 17.4 | 0.00 | 0.00 | 0.00 | 37 | 1010.1 |
| 20260508185314 | 66 | 221 | 2.6 | 4.3 | 0.00 | 0.00 | 0.00 | 35 | 1010.0 |
| 20260508183814 | 67 | 169 | 1.7 | 7.0 | 0.00 | 0.00 | 0.00 | 34 | 1009.7 |
| 20260508182314 | 67 | 91 | 4.3 | 12.2 | 0.00 | 0.00 | 0.00 | 34 | 1010.0 |
| 20260508180814 | 66 | 203 | 3.5 | 12.2 | 0.00 | 0.00 | 0.00 | 36 | 1010.4 |
| 20260508175314 | 66 | 117 | 0.9 | 17.4 | 0.00 | 0.00 | 0.00 | 36 | 1010.7 |
| 20260508173814 | 66 | 355 | 7.0 | 13.9 | 0.00 | 0.00 | 0.00 | 35 | 1010.7 |
| 20260508172314 | 66 | 286 | 2.6 | 8.7 | 0.00 | 0.00 | 0.00 | 37 | 1010.6 |
| 20260508170814 | 65 | 161 | 4.3 | 13.0 | 0.00 | 0.00 | 0.00 | 40 | 1011.0 |
| 20260508165314 | 64 | 86 | 1.7 | 11.3 | 0.00 | 0.00 | 0.00 | 40 | 1011.0 |
| 20260508163814 | 63 | 199 | 3.5 | 13.0 | 0.00 | 0.00 | 0.00 | 41 | 1011.3 |
| 20260508162314 | 63 | 111 | 1.7 | 11.3 | 0.00 | 0.00 | 0.00 | 40 | 1011.5 |
| 20260508160814 | 63 | 105 | 16.5 | 16.5 | 0.00 | 0.00 | 0.00 | 41 | 1011.5 |
| 20260508155314 | 62 | 61 | 2.6 | 10.4 | 0.00 | 0.00 | 0.00 | 40 | 1011.9 |
| 20260508153814 | 62 | 153 | 0.0 | 11.3 | 0.00 | 0.00 | 0.00 | 42 | 1011.8 |
| 20260508152314 | 61 | 343 | 4.3 | 13.9 | 0.00 | 0.00 | 0.00 | 43 | 1012.0 |
| 20260508150814 | 61 | 36 | 6.1 | 10.4 | 0.00 | 0.00 | 0.00 | 45 | 1011.9 |
| 20260508145314 | 60 | 96 | 1.7 | 10.4 | 0.00 | 0.00 | 0.00 | 45 | 1011.9 |
| 20260508143814 | 59 | 155 | 0.9 | 12.2 | 0.00 | 0.00 | 0.00 | 46 | 1012.1 |
| 20260508142314 | 59 | 185 | 1.7 | 7.0 | 0.00 | 0.00 | 0.00 | 45 | 1012.3 |
| 20260508140814 | 59 | 60 | 2.6 | 9.6 | 0.00 | 0.00 | 0.00 | 47 | 1012.3 |
| 20260508135314 | 57 | 153 | 3.5 | 7.0 | 0.00 | 0.00 | 0.00 | 48 | 1012.5 |
| 20260508133814 | 56 | 158 | 5.2 | 8.7 | 0.00 | 0.00 | 0.00 | 48 | 1012.5 |
| 20260508132314 | 54 | 159 | 4.3 | 7.8 | 0.00 | 0.00 | 0.00 | 53 | 1012.6 |
| 20260508130814 | 50 | 111 | 1.7 | 3.5 | 0.00 | 0.00 | 0.00 | 65 | 1012.8 |
| 20260508125315 | 47 | 132 | 1.7 | 2.6 | 0.00 | 0.00 | 0.00 | 72 | 1013.1 |
| 20260508123814 | 45 | 94 | 0.0 | 0.9 | 0.00 | 0.00 | 0.00 | 77 | 1013.2 |
| 20260508122315 | 51 | 268 | 0.0 | 5.2 | 0.00 | 0.00 | 0.00 | 57 | 1013.4 |
| 20260508120815 | 51 | 268 | 0.0 | 5.2 | 0.00 | 0.00 | 0.00 | 57 | 1013.3 |
| 20260508115315 | 51 | 268 | 0.0 | 5.2 | 0.00 | 0.00 | 0.00 | 57 | 1013.4 |
| 20260508113815 | 51 | 268 | 0.0 | 5.2 | 0.00 | 0.00 | 0.00 | 57 | 1013.3 |
| 20260508112315 | 51 | 268 | 0.0 | 5.2 | 0.00 | 0.00 | 0.00 | 57 | 1013.3 |
| 20260508110815 | 51 | 268 | 0.0 | 5.2 | 0.00 | 0.00 | 0.00 | 57 | 1013.1 |
| 20260508105315 | 51 | 268 | 0.0 | 5.2 | 0.00 | 0.00 | 0.00 | 57 | 1013.1 |
| 20260508103815 | 51 | 268 | 0.0 | 5.2 | 0.00 | 0.00 | 0.00 | 57 | 1012.9 |
| 20260508102315 | 51 | 268 | 0.0 | 5.2 | 0.00 | 0.00 | 0.00 | 57 | 1012.7 |
| 20260508100815 | 51 | 268 | 0.0 | 5.2 | 0.00 | 0.00 | 0.00 | 57 | 1012.8 |
| 20260508095315 | 51 | 268 | 0.0 | 5.2 | 0.00 | 0.00 | 0.00 | 57 | 1012.5 |
| 20260508093815 | 51 | 268 | 0.0 | 5.2 | 0.00 | 0.00 | 0.00 | 57 | 1012.6 |
| 20260508092315 | 51 | 268 | 0.0 | 5.2 | 0.00 | 0.00 | 0.00 | 57 | 1012.7 |